This is the latest recevied weather packets stored in our database for station/object DB0FN-10. If no packets are shown the sender has not sent any weather packets the latest 10 day(s).
| Time | Temp. | Humidity | Pressure | Rain* | Wind** | Luminosity | Snow |
|---|---|---|---|---|---|---|---|
| 1777717872 | 23.89° C | 38% | 1025.7 hPa | - | - | - | - |
| 1777716972 | 23.89° C | 35% | 1025.9 hPa | - | - | - | - |
| 1777716072 | 22.78° C | 37% | 1026 hPa | - | - | - | - |
| 1777715172 | 22.22° C | 37% | 1026.2 hPa | - | - | - | - |
| 1777714272 | 22.22° C | 37% | 1026.3 hPa | - | - | - | - |
| 1777713372 | 22.22° C | 36% | 1026.3 hPa | - | - | - | - |
| 1777712472 | 21.67° C | 35% | 1026.4 hPa | - | - | - | - |
| 1777711571 | 21.11° C | 36% | 1026.5 hPa | - | - | - | - |
| 1777710671 | 21.11° C | 37% | 1026.6 hPa | - | - | - | - |
| 1777709771 | 20.56° C | 36% | 1026.5 hPa | - | - | - | - |
| 1777708871 | 20.56° C | 36% | 1026.6 hPa | - | - | - | - |
| 1777707971 | 20° C | 36% | 1026.7 hPa | - | - | - | - |
| 1777707071 | 19.44° C | 36% | 1026.6 hPa | - | - | - | - |
| 1777706171 | 19.44° C | 38% | 1026.6 hPa | - | - | - | - |
| 1777705271 | 19.44° C | 35% | 1026.6 hPa | - | - | - | - |
| 1777704371 | 19.44° C | 33% | 1026.4 hPa | - | - | - | - |
| 1777703471 | 18.89° C | 40% | 1026.5 hPa | - | - | - | - |
| 1777702571 | 18.33° C | 35% | 1026.5 hPa | - | - | - | - |
| 1777701671 | 18.33° C | 37% | 1026.5 hPa | - | - | - | - |
| 1777700771 | 17.22° C | 38% | 1026.4 hPa | - | - | - | - |
| 1777699871 | 17.78° C | 37% | 1026.4 hPa | - | - | - | - |
| 1777698970 | 17.22° C | 41% | 1026.4 hPa | - | - | - | - |
| 1777698070 | 17.22° C | 38% | 1026.3 hPa | - | - | - | - |
| 1777697170 | 17.22° C | 38% | 1026.2 hPa | - | - | - | - |
| 1777696270 | 17.22° C | 35% | 1026.1 hPa | - | - | - | - |
* Rain since midnight (hover to see other rain measurements)
** Current wind speed in m/s (hover to see current wind gust speed)